Regional Weather Roundup
Issued by NWS

Home | Current Version | Previous Version | Graphics & Text | Print | Product List | Glossary On
Versions: 1 2 3 4 5 6 7 8 9 10 11 12 13 14 15 16 17 18 19 20 21 22 23 24 25 26 27 28 29 30 31 32 33 34 35 36 37 38 39 40 41 42 43 44 45 46 47 48 49 50
000
ASUS43 KOAX 250410
RWRNE

WEATHER ROUNDUP FOR NEBRASKA
NATIONAL WEATHER SERVICE OMAHA NE
1100 PM CDT FRI MAR 24 2017

NOTES: SATELLITE DATA IS BEING USED TO AUGMENT CLOUD COVER ABOVE
       12000 FEET.
       "FAIR" INDICATES FEW OR NO CLOUDS BELOW 12,000 FEET WITH NO
       SIGNIFICANT WEATHER AND/OR OBSTRUCTIONS TO VISIBILITY.

  * THESE STATIONS DO NOT REPORT WEATHER SUCH AS RAIN...SNOW OR FOG.

NEZ001>004-019>022-054>056-250500-
NEBRASKA PANHANDLE

CITY           SKY/WX    TMP DP  RH WIND       PRES   REMARKS
SCOTTSBLUFF    CLEAR     36  28  73 E8        30.11S WCI  30
ALLIANCE       CLEAR     35  27  72 SE6       30.11S WCI  30
CHADRON        CLEAR     43  30  60 S12       30.09S
KIMBALL        CLEAR     36  30  79 CALM      30.13S
SIDNEY         CLEAR     33  25  72 SE5       30.13S WCI  29
$$

NEZ057>060-069>072-079>082-250500-
SOUTHWEST NEBRASKA

CITY           SKY/WX    TMP DP  RH WIND       PRES   REMARKS
NORTH PLATTE   CLOUDY    43  36  76 N8        30.08F
IMPERIAL       MOCLDY    41  36  82 N7        30.10S
LEXINGTON      CLOUDY    42  38  86 N13G21    30.05S
MCCOOK         CLOUDY    42  40  92 N10       30.06F
OGALLALA       CLEAR     37  32  81 N8        30.11S WCI  31
$$

NEZ005>010-023>029-035>040-094-250500-
NORTH CENTRAL NEBRASKA

CITY           SKY/WX    TMP DP  RH WIND       PRES   REMARKS
VALENTINE      CLEAR     35  27  72 E6        30.13R WCI  30
AINSWORTH      CLEAR     35  31  85 NE5       30.12S WCI  31
BROKEN BOW     CLOUDY    43  38  82 N16       30.06F
O`NEILL        CLOUDY    39  37  93 N9        30.10F WCI  33
ORD            CLOUDY    42  38  85 N9        30.06F
THEDFORD       CLEAR     38  32  76 N5        30.11F WCI  35
$$

NEZ041-046>049-061>064-073>077-083>087-250500-
SOUTH CENTRAL NEBRASKA

CITY           SKY/WX    TMP DP  RH WIND       PRES   REMARKS
GRAND ISLAND   CLOUDY    40  40 100 N18       30.05S WCI  31
AURORA         CLOUDY    40  38  95 N20       30.03F FOG     WCI  30
HASTINGS       CLOUDY    40  37  89 NE18      30.03F WCI  31
HEBRON         CLOUDY    41  39  91 N13G21    30.00R
HOLDREGE       CLOUDY    41  39  91 N16       30.05S
KEARNEY *      CLOUDY    41  37  87 N15       30.06S
YORK           CLOUDY    39  39 100 N21       30.03F WCI  29
$$

NEZ011>018-030>034-042>045-250500-
NORTHEAST NEBRASKA

CITY           SKY/WX    TMP DP  RH WIND       PRES   REMARKS
NORFOLK        CLOUDY    39  37  92 N14       30.07R WCI  31
ALBION         CLOUDY    41  37  87 N9        30.08R
BLAIR          RAIN      41  39  94 NE22G28   29.98F
FREMONT        RAIN      42  41  97 NE9G16    30.02F
TEKAMAH        LGT RAIN  42  39  89 N16       30.04S
WAYNE          CLOUDY    40  39  99 N16       30.08R FOG     WCI  31
$$

NEZ050>053-065>068-078-088>093-250500-
SOUTHEAST NEBRASKA

CITY           SKY/WX    TMP DP  RH WIND       PRES   REMARKS
LINCOLN        LGT RAIN  42  40  92 N15       30.01F
OMAHA EPPLEY   LGT RAIN  42  38  85 N18       30.00S
BEATRICE       CLOUDY    43  40  89 N12G22    29.97F
FALLS CITY     LGT RAIN  46  32  58 N10       29.90R
NEBRASKA CITY  RAIN      42  42 100 N18G28    29.95S
PLATTSMOUTH    LGT RAIN  42  39  89 N13       29.97F
$$

NEZ044-045-051>053-067-250500-
OMAHA AREA

CITY           SKY/WX    TMP DP  RH WIND       PRES   REMARKS
OMAHA EPPLEY   LGT RAIN  42  38  85 N18       30.00S
BLAIR          RAIN      41  39  94 NE22G28   29.98F
FREMONT        RAIN      42  41  97 NE9G16    30.02F
MILLARD        LGT RAIN  43  42  95 N5        29.99F
OFFUTT AFB     LGT RAIN  42  39  90 N16G22    29.98F
PLATTSMOUTH    LGT RAIN  42  39  89 N13       29.97F
WAHOO          RAIN      41  39  93 N16       30.01F
$$




USA.gov is the U.S. government's official web portal to all federal, state and local government web resources and services.